Wind_Speed
36 37 37 38 40 42 41 40 35 32 31 29 31 28 27 26 23 27 27 27 27 25 20 20 25 21 16 15 18 16 21 26 23 23 20 18 17 14 17 19 17 14 10 16 19
40 40 40 40 39 43 45 44 43 38 37 33 34 34 34 33 30 30 25 30 33 28 26 24 25 22 22 23 20 22 25 29 23 23 21 20 19 19 20 19 12 17 17 18 20
39 38 39 38 39 40 45 47 45 43 42 38 38 38 39 36 36 33 30 27 33 32 31 25 23 23 26 23 25 25 32 28 26 24 23 23 21 18 18 16 14 7 6 18 18
39 38 36 36 37 38 39 42 43 42 41 40 40 39 37 37 32 25 30 25 27 33 35 33 28 28 30 29 27 31 30 31 30 27 26 23 22 22 18 17 16 14 15 18 22
37 37 36 36 36 38 37 38 39 42 42 41 40 41 38 43 50 38 35 35 30 29 31 37 33 32 34 32 29 32 31 31 29 26 26 25 25 23 20 16 14 13 16 18 18
36 36 36 36 37 38 38 37 39 40 39 38 40 41 43 53 40 36 31 32 34 33 32 30 39 34 34 32 33 32 30 30 29 28 26 26 25 23 23 18 15 16 19 16 17
38 38 37 38 37 37 36 36 37 37 37 38 40 42 47 54 41 33 30 30 32 33 32 31 28 29 28 35 31 32 34 32 30 27 29 25 28 26 21 21 21 18 18 20 23
41 41 40 40 38 37 37 35 35 35 34 35 39 43 57 43 33 39 36 31 29 29 29 23 19 30 30 27 30 32 33 36 31 29 30 29 31 22 20 22 23 22 21 21 21
44 44 43 43 42 39 38 35 34 35 33 34 36 39 51 41 43 32 35 36 23 21 22 22 25 24 25 31 32 33 35 35 30 26 28 28 28 22 20 21 22 20 21 24 22
43 45 46 46 44 41 38 36 35 34 33 36 35 35 36 36 28 24 34 37 36 29 24 22 28 30 31 32 42 32 31 31 31 25 26 22 24 22 22 23 24 26 26 23 23
27 31 38 42 45 43 39 36 32 32 39 42 39 42 25 9 12 25 25 30 33 29 33 27 33 42 39 42 36 30 28 30 28 23 13 21 28 20 20 24 28 29 26 24 25
26 28 28 27 31 39 40 38 27 29 38 41 39 45 41 28 17 22 19 26 34 41 29 30 45 37 31 31 33 34 32 30 26 23 21 21 22 21 26 31 27 25 24 23 25
27 27 27 25 25 27 32 31 26 35 34 48 49 45 39 34 40 27 27 28 35 37 39 44 41 32 32 31 34 35 35 30 29 22 22 22 23 23 30 25 22 23 19 14 22
29 28 27 25 24 20 10 13 20 19 20 39 31 50 46 37 46 40 28 29 32 38 39 42 33 33 34 36 32 35 30 27 24 22 22 19 21 24 23 24 17 14 16 19 22
33 32 29 25 19 13 10 13 8 10 8 17 24 32 31 47 26 43 41 35 35 33 36 50 38 38 40 35 34 35 26 25 21 24 23 21 21 26 21 25 16 5 9 19 21
34 33 32 27 22 15 18 22 10 11 15 18 14 34 27 40 44 8 28 42 34 31 36 37 33 34 40 33 30 30 26 21 20 22 18 22 24 26 26 5 3 7 9 13 17
33 32 31 28 23 13 19 14 15 23 25 18 26 29 30 34 40 32 36 47 47 43 46 36 41 38 34 37 31 29 26 19 15 16 13 25 28 29 14 14 8 9 5 9 14
31 30 29 28 22 19 17 20 22 31 45 9 23 26 31 29 36 43 34 46 50 45 30 40 34 44 40 38 37 35 29 23 15 11 18 28 26 11 6 6 7 7 6 9 16
27 24 22 20 19 21 21 29 38 37 21 36 30 33 32 29 33 40 50 51 54 52 43 39 44 33 41 36 33 33 38 29 26 25 18 18 16 12 13 7 8 8 10 13 18
21 20 16 12 13 25 25 36 33 35 43 30 30 22 24 29 37 42 52 52 49 52 46 33 31 36 36 33 33 36 31 27 27 16 15 16 20 10 14 4 11 8 5 10 11
17 19 11 9 15 28 33 40 34 34 37 31 34 32 29 29 25 46 46 44 46 49 47 47 27 30 34 47 38 36 36 33 24 27 12 10 15 7 10 11 6 4 10 4 6
15 9 9 13 15 28 36 35 27 31 32 30 29 31 27 27 28 23 44 48 38 47 50 54 24 32 41 39 41 37 39 32 25 23 18 18 8 9 9 7 6 13 6 0 5
12 14 13 17 15 18 30 25 27 28 33 30 28 28 26 25 20 17 32 40 48 42 54 52 47 24 29 38 40 37 37 38 30 21 24 17 19 12 14 12 8 10 10 3 2
14 12 10 14 20 21 22 25 26 23 29 29 28 25 25 25 19 21 20 22 38 44 43 50 42 45 23 31 42 42 38 37 37 30 25 25 21 17 13 12 11 11 14 8 2
12 10 11 12 16 17 21 25 27 27 15 21 31 26 25 26 22 19 22 28 27 42 44 51 54 40 41 34 40 38 37 37 40 37 33 28 24 17 16 11 13 15 14 15 11
13 13 11 17 12 16 24 16 22 22 21 20 21 25 23 26 24 24 24 16 20 25 42 46 53 45 38 37 35 40 38 36 39 37 32 29 26 19 15 9 15 19 15 16 18
10 9 13 15 14 12 11 12 7 12 16 15 19 23 20 27 24 26 25 29 27 21 14 37 52 48 36 36 35 37 41 39 37 38 35 34 29 22 17 17 16 22 15 17 19
Wind_Direction
268 270 267 263 261 261 260 260 260 259 263 267 269 270 269 272 277 263 256 260 259 255 254 259 263 259 251 251 237 246 255 261 271 285 296 293 288 295 299 275 276 260 252 250 275
270 270 269 265 262 260 259 260 262 263 266 267 268 268 270 274 277 276 277 264 257 257 252 252 260 255 234 241 237 238 248 255 270 283 294 292 292 288 289 276 273 267 262 288 287
270 268 266 265 261 258 256 258 261 264 268 269 268 267 269 273 277 280 272 272 258 257 256 251 256 244 235 239 242 244 248 259 268 280 283 280 280 285 285 279 275 262 282 270 279
272 269 266 264 264 260 253 253 257 261 263 266 266 264 262 265 258 263 272 269 261 256 254 253 236 230 234 240 245 251 255 260 267 271 278 278 275 276 275 277 270 278 266 261 274
268 269 270 266 263 263 260 255 254 256 260 262 264 265 261 259 268 265 261 265 263 257 255 256 234 232 236 241 250 254 259 261 265 270 271 273 268 275 270 264 274 270 264 251 252
268 267 266 267 266 264 261 258 256 255 257 258 259 258 255 257 267 260 258 258 262 260 267 258 239 233 243 246 248 257 261 265 266 263 272 269 266 268 266 256 270 262 264 264 267
269 268 265 264 263 262 262 261 260 257 256 255 254 254 253 260 258 255 253 263 260 267 264 253 248 219 240 249 251 256 261 262 259 259 263 270 263 258 266 261 269 271 269 269 262
270 267 266 265 264 263 260 259 259 259 257 256 255 257 258 257 259 250 251 249 252 250 241 235 239 240 235 247 249 251 254 259 259 259 261 251 254 261 265 265 268 264 272 278 275
270 268 266 265 263 262 263 262 259 258 257 255 256 260 262 263 253 254 246 248 234 232 232 239 233 239 239 235 247 245 251 251 262 254 257 250 246 254 264 270 266 260 271 274 265
273 271 269 266 263 262 261 262 263 261 257 254 251 255 254 273 265 250 241 239 230 230 242 233 225 229 232 224 234 234 240 244 252 259 270 236 253 255 260 272 267 266 268 277 261
302 290 276 271 268 264 261 258 260 265 259 251 256 258 241 301 255 242 230 227 218 225 229 219 217 221 222 226 232 239 245 245 258 266 259 245 252 257 269 276 276 282 278 274 259
302 302 302 301 286 266 257 254 241 239 255 253 244 247 246 222 244 221 210 218 211 217 218 218 225 223 227 229 230 236 245 254 264 272 276 276 270 272 279 276 276 280 274 273 248
307 303 299 301 300 307 267 254 238 238 264 253 250 247 247 229 232 226 224 214 211 214 213 218 226 223 225 227 227 233 240 249 258 268 267 275 273 270 279 287 277 275 271 265 235
300 298 299 299 302 320 307 257 238 242 273 259 256 253 240 232 237 226 214 212 214 218 217 227 228 223 223 226 224 232 233 241 252 266 271 272 293 283 291 285 272 265 264 239 243
295 292 293 289 298 273 215 163 175 213 263 258 253 246 243 224 235 229 215 210 215 213 212 227 220 222 224 225 226 232 235 241 245 251 261 268 271 278 287 282 263 287 277 246 232
293 288 283 288 275 264 243 220 208 191 235 237 235 198 197 209 215 228 214 201 216 217 223 233 224 224 226 228 227 229 235 242 247 256 257 258 259 273 272 315 322 306 283 219 222
293 287 279 275 268 229 210 181 202 221 232 240 205 194 201 207 210 206 197 198 204 208 223 222 225 224 224 225 225 220 223 225 227 238 253 256 249 249 272 287 294 280 261 229 251
294 290 283 269 250 213 218 200 219 230 224 213 213 210 211 208 215 206 201 202 205 209 213 217 221 218 214 221 217 211 211 224 222 226 245 255 234 254 195 191 229 245 243 226 266
300 292 278 270 246 195 207 216 223 231 246 240 272 276 215 219 218 208 210 208 204 202 210 208 226 218 216 215 215 209 215 220 246 259 288 269 243 211 214 213 222 221 212 237 263
306 291 279 250 251 193 223 223 238 242 249 268 285 299 288 232 220 205 210 214 212 211 205 216 217 219 213 212 214 216 210 211 229 244 265 280 276 259 151 194 159 181 207 254 287
302 296 266 230 196 214 225 231 244 249 250 267 267 286 290 287 273 216 216 217 215 212 206 215 225 217 211 207 204 208 224 209 226 226 231 248 267 236 167 168 174 281 197 269 266
306 300 313 221 212 226 232 239 259 265 262 266 268 267 277 294 294 273 218 218 214 209 205 209 226 237 213 210 211 214 214 209 213 221 246 253 276 142 144 171 174 160 191 6 256
303 288 282 224 220 259 249 269 262 265 263 261 266 261 269 290 299 255 237 220 212 205 208 208 222 231 231 215 200 212 217 218 219 217 218 231 249 206 178 174 184 171 184 94 330
301 291 282 257 267 272 272 269 276 266 263 256 271 266 276 278 267 263 262 245 213 215 209 207 216 221 222 207 191 199 213 216 217 220 222 234 242 170 163 190 202 207 203 212 293
295 287 285 284 290 276 271 265 279 285 274 247 262 257 261 271 272 261 279 281 246 216 213 203 214 220 222 222 204 205 210 216 217 218 221 225 233 219 207 210 213 203 205 205 207
289 287 286 293 304 288 282 287 262 279 284 280 274 252 261 263 261 287 314 319 255 229 206 201 212 215 219 223 226 208 211 217 222 218 218 226 230 228 228 212 201 198 205 203 214
276 280 297 308 303 304 275 288 258 297 290 278 284 262 274 262 275 273 287 279 267 264 219 196 204 206 224 216 227 217 207 211 220 223 216 219 222 225 229 226 213 192 219 203 210
Height
3139 3138 3138 3138 3140 3140 3140 3141 3142 3144 3146 3146 3148 3148 3149 3149 3148 3148 3151 3153 3153 3154 3154 3155 3156 3157 3158 3158 3162 3164 3163 3159 3158 3155 3153 3153 3152 3150 3150 3147 3148 3147 3145 3145 3143
3130 3130 3130 3130 3130 3131 3132 3134 3136 3137 3139 3140 3142 3142 3143 3143 3143 3144 3147 3147 3149 3150 3150 3150 3152 3154 3157 3156 3159 3160 3158 3155 3156 3153 3151 3150 3150 3149 3148 3145 3144 3141 3140 3140 3139
3122 3121 3121 3121 3122 3123 3125 3127 3128 3129 3131 3132 3134 3135 3136 3136 3136 3137 3139 3142 3143 3144 3146 3147 3149 3150 3152 3154 3154 3154 3151 3153 3152 3151 3150 3148 3146 3146 3144 3143 3142 3141 3141 3134 3135
3113 3113 3114 3114 3114 3115 3116 3118 3119 3121 3123 3124 3125 3127 3128 3127 3130 3129 3133 3136 3138 3138 3139 3141 3144 3146 3145 3147 3150 3151 3148 3148 3147 3147 3146 3144 3143 3143 3141 3141 3140 3138 3137 3134 3130
3106 3105 3105 3105 3105 3106 3107 3109 3111 3113 3114 3116 3116 3116 3118 3113 3116 3124 3127 3128 3129 3130 3132 3135 3137 3138 3140 3142 3146 3144 3143 3143 3144 3142 3141 3140 3138 3139 3137 3138 3137 3135 3134 3131 3130
3097 3097 3096 3096 3097 3098 3098 3099 3101 3103 3105 3106 3106 3107 3107 3098 3119 3119 3119 3119 3122 3123 3125 3127 3128 3135 3135 3137 3139 3140 3139 3138 3138 3137 3137 3135 3133 3134 3133 3134 3132 3132 3131 3129 3126
3088 3088 3088 3088 3088 3089 3090 3091 3091 3092 3095 3098 3098 3096 3091 3092 3110 3110 3112 3110 3113 3114 3116 3120 3124 3127 3132 3131 3135 3135 3133 3132 3132 3132 3131 3132 3128 3128 3130 3129 3130 3127 3127 3125 3124
3079 3079 3079 3079 3080 3081 3081 3082 3083 3085 3088 3088 3086 3085 3073 3089 3098 3102 3104 3104 3107 3109 3111 3116 3120 3120 3123 3128 3128 3128 3128 3125 3124 3126 3124 3125 3120 3125 3126 3125 3125 3123 3122 3121 3118
3068 3067 3068 3068 3069 3071 3072 3073 3074 3075 3078 3078 3079 3078 3067 3082 3084 3096 3096 3098 3103 3105 3107 3111 3114 3116 3119 3121 3121 3121 3118 3119 3118 3118 3116 3115 3116 3120 3121 3120 3119 3118 3117 3117 3116
3057 3056 3056 3057 3058 3060 3062 3064 3065 3066 3068 3066 3069 3069 3070 3073 3076 3080 3085 3089 3093 3098 3101 3104 3108 3110 3111 3113 3103 3112 3112 3113 3112 3111 3110 3110 3112 3114 3114 3114 3114 3112 3111 3110 3109
3047 3046 3045 3046 3046 3050 3054 3056 3061 3062 3055 3055 3059 3056 3067 3067 3068 3070 3077 3080 3087 3092 3092 3097 3100 3094 3098 3100 3106 3109 3107 3106 3105 3105 3110 3108 3107 3108 3110 3109 3108 3107 3106 3105 3103
3043 3040 3038 3037 3036 3038 3041 3043 3053 3048 3041 3041 3046 3044 3052 3063 3064 3066 3072 3073 3078 3078 3089 3093 3081 3089 3096 3100 3102 3104 3104 3103 3102 3102 3103 3102 3102 3104 3105 3102 3101 3100 3101 3101 3097
3036 3034 3033 3033 3031 3030 3031 3038 3044 3040 3034 3029 3031 3035 3043 3054 3052 3057 3063 3066 3069 3074 3077 3075 3074 3088 3091 3093 3096 3098 3099 3101 3101 3101 3101 3099 3097 3099 3097 3096 3096 3096 3094 3095 3092
3030 3028 3027 3028 3029 3027 3024 3030 3033 3037 3032 3014 3017 3013 3028 3040 3034 3047 3057 3062 3063 3064 3072 3069 3078 3081 3084 3085 3090 3090 3095 3096 3097 3099 3097 3097 3091 3093 3093 3091 3089 3089 3089 3089 3089
3023 3021 3020 3021 3023 3024 3024 3023 3031 3034 3032 3007 3004 3009 3016 3016 3028 3027 3042 3052 3052 3059 3068 3051 3068 3072 3074 3078 3084 3085 3089 3091 3093 3095 3095 3095 3095 3089 3089 3085 3085 3086 3086 3085 3084
3015 3013 3012 3014 3016 3018 3017 3021 3026 3033 3009 2996 3002 3001 3008 3009 3016 3030 3030 3042 3053 3056 3055 3056 3064 3066 3068 3074 3078 3083 3085 3087 3090 3090 3087 3089 3090 3086 3083 3083 3083 3084 3083 3082 3083
3005 3003 3003 3005 3009 3009 3013 3018 3023 3009 2993 2991 2997 2998 3002 3006 3013 3020 3024 3030 3035 3044 3040 3051 3052 3058 3064 3068 3071 3076 3079 3082 3086 3085 3081 3082 3082 3078 3078 3080 3081 3083 3082 3080 3081
2996 2994 2993 2995 2998 3002 3005 3011 3004 2985 2986 2988 2996 2997 2998 3005 3006 3011 3019 3021 3026 3029 3039 3042 3045 3045 3052 3055 3062 3066 3074 3074 3078 3078 3076 3070 3073 3073 3074 3076 3078 3080 3082 3080 3079
2989 2986 2984 2987 2990 2995 2998 2996 2988 2987 2989 2990 2991 2992 2991 2997 3000 3007 3006 3006 3010 3017 3026 3032 3032 3042 3045 3052 3057 3061 3065 3072 3074 3072 3071 3068 3070 3070 3069 3072 3075 3078 3079 3077 3078
2983 2979 2979 2982 2984 2988 2989 2985 2982 2987 2984 2989 2990 2988 2985 2986 2992 2994 2998 2997 3005 3011 3021 3023 3031 3032 3038 3047 3051 3054 3063 3068 3070 3071 3072 3067 3065 3064 3066 3070 3072 3075 3077 3077 3076
2980 2976 2978 2976 2979 2980 2976 2971 2975 2982 2983 2989 2988 2986 2984 2983 2981 2982 2988 2994 3000 3006 3015 3019 3023 3027 3032 3032 3039 3049 3052 3057 3065 3066 3066 3068 3063 3058 3062 3068 3070 3072 3074 3075 3075
2976 2975 2975 2972 2977 2974 2972 2972 2979 2978 2979 2981 2984 2984 2982 2981 2977 2973 2975 2983 2991 2999 3005 3006 3014 3019 3019 3026 3035 3043 3047 3052 3057 3061 3061 3061 3062 3060 3064 3067 3070 3070 3073 3074 3074
2976 2974 2975 2973 2970 2971 2971 2973 2974 2975 2975 2977 2979 2981 2979 2980 2978 2968 2967 2976 2985 2990 2993 3001 3010 3013 3015 3022 3027 3036 3042 3047 3052 3057 3057 3060 3059 3059 3062 3065 3068 3068 3070 3072 3073
2975 2973 2973 2972 2971 2971 2970 2970 2968 2969 2968 2971 2971 2974 2974 2975 2976 2967 2966 2968 2977 2981 2987 2999 2999 3004 3003 3008 3019 3026 3033 3039 3045 3048 3054 3054 3056 3056 3061 3064 3066 3066 3066 3069 3070
2974 2972 2972 2970 2969 2967 2966 2965 2964 2963 2964 2968 2967 2968 2971 2970 2968 2969 2965 2960 2958 2971 2980 2989 2991 2999 3004 3008 3012 3018 3026 3032 3035 3041 3046 3051 3053 3055 3058 3062 3064 3065 3066 3067 3068
2972 2971 2970 2967 2966 2964 2964 2960 2961 2961 2962 2958 2960 2963 2966 2964 2967 2964 2964 2964 2958 2959 2972 2978 2986 2996 3000 3003 3004 3009 3017 3026 3030 3035 3042 3046 3048 3053 3055 3056 3060 3060 3064 3068 3068
2971 2970 2968 2964 2963 2963 2961 2960 2958 2958 2957 2958 2956 2956 2956 2956 2962 2960 2962 2959 2956 2958 2960 2970 2975 2987 2991 2997 3000 2999 3006 3015 3023 3028 3034 3037 3044 3049 3052 3054 3058 3057 3060 3065 3067